www.pogodaiklimat.ru

Погода и климат >> Архив погоды >> Россия >> Приморский край >> Барабаш


ПОГОДА в Барабаше

  • Прогноз погоды в Барабаше
  • Монитор погоды в Барабаше

АРХИВ ПОГОДЫ в Барабаше

Время (UTC), дата Ветер
(напр.,м/с)
 
Видим.   Явления Облачность Т
(С)
Тd
(С)
f
(%)
Тe
(С)
Тes
(С)
Комфортность P
(гПа)
Po
(гПа)
Тmin
(С)
Tmax
(С)
R
(мм)
R24
(мм)
S
(см)
03 13.06 ЮВ 2 10 км 10 баллов +15.6 +14.0 90 +15 +15 1009.6 1005.3
06 13.06 ЮВ 2 н/о н/о +15.2 +13.6 90 +15 1009.6 1005.3
09 13.06 В 1 10 км 10/10 300 м
[St]
+14.6 +13.5 93 +15 +15 1008.3 1004.0 +16.0 0.0
12 13.06 В 1 н/о н/о +13.9 +13.6 98 +14 1008.3 1004.0
15 13.06 штиль 0 4000 м слаб. морось 10 баллов +13.9 +13.6 98 +13 +13 1008.3 1004.0
18 13.06 штиль 0 н/о н/о +13.8 +13.5 98 +13 1007.0 1002.7
21 13.06 Ю 1 500 м туман {дождь} ?/? +13.6 +13.6 100 +14 +14 1006.5 1002.2 +13.6 3
00 14.06 штиль 0 н/о н/о +14.2 +13.9 98 +14 +14 1007.2 1002.9
03 14.06 штиль 0 20 км слаб. дождь 10 баллов +14.7 +14.4 98 +14 +14 1007.0 1002.7
06 14.06 Ю 1 н/о н/о +15.8 +15.5 98 +16 1005.5 1001.3
09 14.06 штиль 0 20 км слаб. дождь 10/10 300 м
[Frnb Ns]
+15.8 +15.5 98 +16 +16 1005.5 1001.3 +16.6 7
12 14.06 штиль 0 н/о н/о +15.0 +14.7 98 +15 1007.0 1002.7
15 14.06 Ю 1 10 км слаб. дождь 10 баллов +14.9 +14.6 98 +15 +15 1005.6 1001.3
18 14.06 штиль 0 н/о н/о +14.8 +14.3 97 +14 1004.3 1000.0
21 14.06 штиль 0 4000 м слаб. дождь 10/10 300 м
[Frnb Ns]
+14.7 +14.4 98 +14 +14 1003.9 999.6 +14.6 10
00 15.06 С 1 н/о н/о +14.1 +13.2 94 +14 +14 1005.3 1001.0 +14.1
03 15.06 штиль 0 10 км слаб. дождь 10 баллов +13.1 +12.8 98 +13 +13 1007.0 1002.7
06 15.06 СЗ 1 н/о н/о +12.3 +12.0 98 +12 1007.0 1002.7
09 15.06 штиль 0 20 км {дождь} 10/10 300 м
[Sc]
+12.1 +11.8 98 +11 +11 1007.0 1002.7 +14.9 17
12 15.06 штиль 0 н/о н/о +12.0 +11.7 98 +11 1007.0 1002.7
15 15.06 СЗ 1 10 км слаб. дождь 10 баллов +13.2 +12.7 97 +13 +13 1007.0 1002.7
18 15.06 СЗ 1 н/о н/о +13.5 +13.0 97 +14 1005.6 1001.3
21 15.06 СЗ 3 50 км {дождь} 10/10 300 м
[Sc]
+13.7 +10.5 81 +13 +13 1006.5 1002.2 +12.0 0.5
00 16.06 СЗ 2 н/о н/о +14.9 +10.3 74 +15 +15 1007.3 1003.0
03 16.06 С 2 50 км 10 баллов +16.0 +10.3 69 +16 +16 1008.3 1004.0
06 16.06 СЗ 2 н/о н/о +16.5 +10.1 66 +17 1008.2 1004.0
09 16.06 С 3 50 км 5/3 600 м
[Sc Ac trans]
+18.4 +9.7 57 +19 +20 1008.2 1004.0 +19.2
12 16.06 штиль 0 н/о н/о +10.8 +10.5 98 +10 1011.0 1006.7
15 16.06 С 2 10 км ясно +8.3 +8.0 98 +6 +6 1011.1 1006.7
18 16.06 СЗ 2 н/о н/о +5.9 +5.6 98 +3 1012.4 1008.0
21 16.06 СЗ 2 50 км ясно +6.2 +5.9 98 +4 +5 1011.3 1006.8 +4.6
00 17.06 СЗ 2 н/о н/о +17.5 +8.9 57 +18 +18 1011.0 1006.7
03 17.06 В 2 50 км 4 балла +21.0 +9.6 48 +23 +35 комфорт 1010.9 1006.7
06 17.06 В 2 н/о н/о +22.3 +8.4 41 +24 1009.5 1005.3
09 17.06 Ю 2 50 км 3/0
[Cc]
+21.5 +9.4 46 +23 +25 комфорт 1009.5 1005.3 +22.8
12 17.06 штиль 0 н/о н/о +14.6 +12.6 88 +14 1011.0 1006.7
15 17.06 СЗ 1 10 км 5 баллов +11.1 +10.8 98 +11 +11 1011.0 1006.7
18 17.06 С 1 н/о н/о +9.7 +9.4 98 +9 1009.7 1005.3
21 17.06 штиль 0 50 км 9/9 600 м
[Sc]
+10.5 +10.2 98 +10 +10 1008.7 1004.4 +9.3
00 18.06 Ю 2 н/о н/о +16.0 +13.8 87 +16 +16 1007.9 1003.6
03 18.06 ЮВ 3 50 км 4 балла +18.8 +14.7 77 +20 +30 1006.9 1002.7
06 18.06 Ю 4 н/о н/о +17.1 +15.4 90 +17 1005.5 1001.3
09 18.06 ЮВ 2 50 км 9/9 600 м
[Sc]
+15.6 +14.5 93 +15 +16 1005.5 1001.3 +19.5 2
12 18.06 штиль 0 н/о н/о +14.2 +13.9 98 +14 1007.0 1002.7
15 18.06 штиль 0 10 км 10 баллов +14.5 +14.2 98 +14 +14 1007.0 1002.7
18 18.06 штиль 0 н/о н/о +14.2 +13.9 98 +14 1007.0 1002.7
21 18.06 З 1 10 км 10/10 300 м
[St]
+14.2 +13.9 98 +14 +14 1006.2 1001.9 +14.0
00 19.06 Ю 1 н/о н/о +17.5 +14.4 82 +19 +19 1005.8 1001.5
03 19.06 В 2 50 км 7 баллов +22.4 +15.0 63 +26 +32 жарко 1005.4 1001.3
06 19.06 ЮВ 2 н/о н/о +24.2 +10.8 43 +25 1002.8 998.7
09 19.06 ЮВ 1 50 км 8/4 600 м
[Sc Ac trans Ci]
+21.0 +11.9 56 +24 +25 комфорт 1002.9 998.7 +25.0
12 19.06 С 1 н/о н/о +16.8 +14.6 87 +18 1004.2 1000.0
15 19.06 ЮВ 1 10 км слаб. дождь 10 баллов +14.9 +14.6 98 +15 +15 1004.2 1000.0
18 19.06 В 1 н/о н/о +14.6 +14.3 98 +15 1004.3 1000.0
21 19.06 штиль 0 20 км 10/10 300 м
[St]
+14.2 +13.9 98 +14 +14 1003.5 999.2 +14.0 0.3

 

Местоположение метеостанции Барабаш (Приморский край, Россия): широта 43.20 долгота 131.40 высота над уровнем моря 36 м.

В архиве по умолчанию представлена погода в Барабаше за последнюю неделю. Архивные данные за месяц целиком и за предыдущие месяцы, начиная с января 2011 года, Вы можете получить, выбрав интересующий диапазон дат из раскрывающегося списка и нажав кнопку "Ввод!".


*Определитесь, кто Вы:
робот инопланетянин человек

Внимание! Время в таблицах - всемирное. Для получения местного времени необходимо прибавить поправку, которая равна 10 ч.

Смотрите также архив погоды в соседних городах и на ближайших метеорологических станциях:

Погода в Владивостоке (Приморский край, Россия) (42 км)
Погода на Мысе Назимова (Приморский край, Россия) (44 км)
Погода в Гамове (Приморский край, Россия) (74 км)
Погода в Посьете (Приморский край, Россия) (78 км)
Погода в Тимирязевском (Приморский край, Россия) (86 км)
Погода в Многоудобном (Приморский край, Россия) (92 км)
Погода в Полтавке (Приморский край, Россия) (93 км)
Погода в Находке (Приморский край, Россия) (122 км)
Погода в Сонбонге (КНДР) (127 км)
Погода в Партизанске (Приморский край, Россия) (130 км)

Пояснения к столбцам:

Ветер - указаны скорость ветра в м/с - средняя за 10 мин, порывы в срок и между сроками (в фигурных скобках) и направление, откуда дует ветер: С - северный, СВ - северо-восточный, В - восточный, ЮВ - юго-восточный, Ю - южный, ЮЗ - юго-западный, З - западный, СЗ - северо-западный.
Видимость - горизонтальная дальность видимости в метрах или километрах. При видимости от 1 до 10 км при отсутствии осадков обычно наблюдается дымка, при ухудшении видимости до 1 км и менее - туман. В сухую погоду видимость может ухудшаться дымом, пылью или мглою.
Явления - указаны атмосферные явления, наблюдавшиеся в срок или в последний час перед сроком; фигурными скобками обозначены явления, наблюдавшиеся между сроками (за 1-3 часа до срока); квадратными скобками обозначены град или гололедные отложения с указанием их диаметра в мм.
Облачность - указаны через наклонную черту общая и нижняя облачность в баллах и высота нижней границы облаков в метрах; квадратными скобками обозначены формы облаков: Ci - перистые, Cs - перисто-слоистые, Cc - перисто-кучевые, Ac - высококучевые, As - высокослоистые, Sc - слоисто-кучевые, Ns - слоисто-дождевые, Cu - кучевые, Cb - кучево-дождевые. Подробнее классификацию облаков см. в Атласе облаков (PDF).
T - Температура воздуха - температура, измеренная на высоте 2 м над землей.
Td - Температура точки росы - температура, при понижении до которой содержащийся в воздухе водяной пар достигнет насыщения.
f - Относительная влажность воздуха - влажноcть воздуха, измеренная на высоте 2 м над землей.
Te - Эффективная температура - температура, которую ощущает одетый по сезону человек в тени. Характеристика душности погоды. При расчете учитывается влияние влажности воздуха и скорости ветра на теплоощущения человека.
Tes - Эффективная температура на солнце - температура, которую ощущает человек, с поправкой на солнечный нагрев. Характеристика знойности погоды. Зависит от высоты солнца над горизонтом, облачности и скорости ветра. Ночью, в пасмурную погоду, а также при ветре 12 м/с и более поправка равна нулю.
P - Атмосферное давление - приведенное к уровню моря атмосферное давление.
Po - Атмосферное давление - измеренное на уровне метеостанции атмосферное давление.
Tmin - Минимальная температура - минимум температуры воздуха на высоте 2 м над землей.
Tmax - Максимальная температура - максимум температуры воздуха на высоте 2 м над землей.
R - Количество осадков - Количество выпавших осадков за период времени, мм. При наведении курсора мыши на число - период времени, за который выпало указанное количество осадков.
R24 - Количество осадков - Количество выпавших осадков за 24 часа, мм.
S - Снежный покров - Высота снежного покрова, см. При наведении курсора мыши на число - состояние снежного покрова и степень покрытия местности в баллах.